Weather History for Charles City, IA

Change the Weather History Date:

Wednesday, November 19, 2014

  Actual Average Record
Temperature  
Mean Temperature 20 °F -  
Max Temperature 24 °F 43 °F 66 °F (1953)
Min Temperature 15 °F 26 °F 8 °F (1978)
Degree Days  
Heating Degree Days 46    
Moisture  
Dew Point 13 °F    
Average Humidity 70    
Maximum Humidity 80    
Minimum Humidity 59    
Precipitation  
Precipitation 0.00 in - - ()
Sea Level Pressure  
Sea Level Pressure 29.89 in    
Wind  
Wind Speed 14 mph (West)    
Max Wind Speed 26 mph    
Max Gust Speed 39 mph    
Visibility 10 miles    
Events Snow    
Averages and records for this station are not official NWS values.
T = Trace of Precipitation, MM = Missing Value Source: NWS Daily Summary

Daily Weather History Graph

Daily Weather History Graph

Search for Another Location

Airport:

Trip Planner

Search our weather history database for the weather conditions in past years. The results will help you decide how hot, cold, wet, or windy it might be!

Date:

Astronomy

Nov. 19, 2014 Rise Set
Actual Time 7:08 AM CST 4:43 PM CST
Civil Twilight 6:37 AM CST 5:14 PM CST
Nautical Twilight 6:02 AM CST 5:48 PM CST
Astronomical Twilight 5:28 AM CST 6:22 PM CST
Moon 3:59 AM CST (11/19) 3:15 PM CST (11/19)
Length of Visible Light 10h 37m
Length of Day
9h 35m
Waning Crescent, 8% of the Moon is Illuminated
Nov 19
Waning Crescent
Nov 22
New
Nov 29
First Quarter
Dec 6
Full
Dec 14
Last Quarter

Hourly Weather History & Observations

Time (CST) Temp. Windchill Dew Point Humidity Pressure Visibility Wind Dir Wind Speed Gust Speed Precip Events Conditions
12:15 AM 19.4 °F 7.2 °F 10.4 °F 68% 29.78 in 10.0 mi SSE 11.5 mph - N/A   Overcast
12:35 AM 19.4 °F 7.9 °F 10.4 °F 68% 29.77 in 10.0 mi SSE 10.4 mph - N/A   Overcast
12:55 AM 17.6 °F 8.2 °F 10.4 °F 73% 29.76 in 10.0 mi SE 6.9 mph - N/A   Overcast
1:15 AM 19.4 °F 11.5 °F 12.2 °F 74% 29.75 in 10.0 mi SSE 5.8 mph - N/A   Overcast
1:35 AM 19.4 °F 14.3 °F 12.2 °F 74% 29.75 in 10.0 mi South 3.5 mph - N/A   Overcast
1:55 AM 19.4 °F 10.4 °F 12.2 °F 74% 29.76 in 10.0 mi SW 6.9 mph - N/A   Overcast
2:15 AM 19.4 °F 11.5 °F 12.2 °F 74% 29.75 in 10.0 mi SSW 5.8 mph - N/A   Overcast
2:35 AM 19.4 °F 10.4 °F 14.0 °F 80% 29.75 in 10.0 mi SSW 6.9 mph - N/A Snow Light Snow
2:55 AM 19.4 °F 9.5 °F 14.0 °F 80% 29.75 in 10.0 mi SW 8.1 mph - N/A   Overcast
3:15 AM 19.4 °F 12.8 °F 14.0 °F 80% 29.75 in 10.0 mi SW 4.6 mph - N/A   Overcast
3:35 AM 19.4 °F 11.5 °F 14.0 °F 80% 29.74 in 10.0 mi SW 5.8 mph - N/A   Overcast
3:55 AM 21.2 °F 12.6 °F 15.8 °F 80% 29.74 in 10.0 mi WSW 6.9 mph - N/A   Overcast
4:15 AM 21.2 °F 11.7 °F 15.8 °F 80% 29.74 in 10.0 mi West 8.1 mph - N/A   Overcast
4:35 AM 21.2 °F 11.7 °F 15.8 °F 80% 29.75 in 10.0 mi West 8.1 mph - N/A   Overcast
4:55 AM 23.0 °F 13.1 °F 17.6 °F 80% 29.75 in 10.0 mi West 9.2 mph - N/A   Overcast
5:15 AM 23.0 °F 11.7 °F 17.6 °F 80% 29.76 in 10.0 mi WNW 11.5 mph - N/A Snow Light Snow
5:35 AM 24.8 °F 10.7 °F 19.4 °F 80% 29.76 in 10.0 mi WNW 19.6 mph 26.5 mph N/A   Overcast
5:55 AM 24.8 °F 9.6 °F 17.6 °F 74% 29.77 in 9.0 mi NW 23.0 mph 32.2 mph N/A Snow Light Snow
6:15 AM 23.0 °F 8.7 °F 15.8 °F 74% 29.79 in 9.0 mi NW 18.4 mph 28.8 mph N/A Snow Light Snow
6:35 AM 23.0 °F 8.7 °F 15.8 °F 74% 29.80 in 6.0 mi WNW 18.4 mph 26.5 mph N/A Snow Light Snow
6:55 AM 21.2 °F 8.3 °F 14.0 °F 74% 29.80 in 10.0 mi WNW 13.8 mph 23.0 mph N/A   Overcast
7:15 AM 21.2 °F 5.2 °F 12.2 °F 68% 29.81 in 10.0 mi WNW 21.9 mph 29.9 mph N/A   Overcast
7:35 AM 21.2 °F 6.4 °F 14.0 °F 74% 29.82 in 10.0 mi NW 18.4 mph 25.3 mph N/A   Overcast
7:55 AM 21.2 °F 6.4 °F 14.0 °F 74% 29.83 in 10.0 mi NW 18.4 mph 29.9 mph N/A   Overcast
8:15 AM 21.2 °F 5.6 °F 14.0 °F 74% 29.85 in 10.0 mi WNW 20.7 mph 27.6 mph N/A   Overcast
8:35 AM 21.2 °F 7.3 °F 14.0 °F 74% 29.86 in 10.0 mi WNW 16.1 mph 31.1 mph N/A Snow Light Snow
8:55 AM 21.2 °F 7.3 °F 12.2 °F 68% 29.87 in 10.0 mi WNW 16.1 mph 28.8 mph N/A Snow Light Snow
9:15 AM 21.2 °F 4.5 °F 12.2 °F 68% 29.88 in 9.0 mi WNW 24.2 mph 33.4 mph N/A Snow Light Snow
9:35 AM 21.2 °F 4.2 °F 12.2 °F 68% 29.88 in 10.0 mi NW 25.3 mph 32.2 mph N/A Snow Light Snow
9:55 AM 21.2 °F 5.2 °F 10.4 °F 63% 29.89 in 10.0 mi NW 21.9 mph 32.2 mph N/A   Overcast
10:15 AM 21.2 °F 3.9 °F 10.4 °F 63% 29.91 in 10.0 mi NW 26.5 mph 35.7 mph N/A   Overcast
10:35 AM 21.2 °F 6.8 °F 10.4 °F 63% 29.91 in 10.0 mi NW 17.3 mph 28.8 mph N/A   Overcast
10:55 AM 23.0 °F 8.0 °F 10.4 °F 59% 29.92 in 10.0 mi NW 20.7 mph 26.5 mph N/A Snow Light Snow
11:15 AM 23.0 °F 6.3 °F 10.4 °F 59% 29.92 in 9.0 mi NW 26.5 mph 32.2 mph N/A Snow Light Snow
11:35 AM 23.0 °F 8.0 °F 12.2 °F 63% 29.92 in 10.0 mi NW 20.7 mph 32.2 mph N/A Snow Light Snow
11:55 AM 23.0 °F 7.2 °F 12.2 °F 63% 29.91 in 6.0 mi WNW 23.0 mph 39.1 mph N/A Snow Light Snow
12:15 PM 23.0 °F 9.2 °F 14.0 °F 68% 29.92 in 4.0 mi WNW 17.3 mph 27.6 mph N/A Snow Light Snow
12:35 PM 23.0 °F 8.7 °F 14.0 °F 68% 29.92 in 5.0 mi WNW 18.4 mph 28.8 mph N/A Snow Light Snow
12:55 PM 24.8 °F 10.0 °F 12.2 °F 59% 29.92 in 7.0 mi WNW 21.9 mph 28.8 mph N/A Snow Light Snow
1:15 PM 24.8 °F 10.3 °F 12.2 °F 59% 29.92 in 10.0 mi WNW 20.7 mph 33.4 mph N/A   Overcast
1:35 PM 24.8 °F 10.7 °F 14.0 °F 64% 29.92 in 10.0 mi WNW 19.6 mph 27.6 mph N/A   Overcast
1:55 PM 24.8 °F 10.3 °F 14.0 °F 64% 29.92 in 10.0 mi WNW 20.7 mph 28.8 mph N/A   Overcast
2:15 PM 24.8 °F 10.0 °F 14.0 °F 64% 29.93 in 7.0 mi WNW 21.9 mph 29.9 mph N/A Snow Light Snow
2:35 PM 24.8 °F 9.6 °F 14.0 °F 64% 29.93 in 5.0 mi WNW 23.0 mph 32.2 mph N/A Snow Light Snow
2:55 PM 24.8 °F 10.7 °F 12.2 °F 59% 29.94 in 10.0 mi WNW 19.6 mph 31.1 mph N/A   Overcast
3:15 PM 23.0 °F 8.0 °F 14.0 °F 68% 29.94 in 9.0 mi WNW 20.7 mph 28.8 mph N/A Snow Light Snow
3:35 PM 24.8 °F 9.6 °F 12.2 °F 59% 29.95 in 8.0 mi WNW 23.0 mph 28.8 mph N/A   Overcast
3:55 PM 23.0 °F 9.2 °F 14.0 °F 68% 29.96 in 10.0 mi WNW 17.3 mph 26.5 mph N/A   Overcast
4:15 PM 23.0 °F 7.6 °F 12.2 °F 63% 29.96 in 10.0 mi WNW 21.9 mph - N/A   Overcast
4:35 PM 23.0 °F 7.6 °F 12.2 °F 63% 29.97 in 10.0 mi WNW 21.9 mph 27.6 mph N/A   Overcast
4:55 PM 21.2 °F 8.9 °F 10.4 °F 63% 29.97 in 10.0 mi WNW 12.7 mph 26.5 mph N/A   Mostly Cloudy
5:15 PM 21.2 °F 8.3 °F 12.2 °F 68% 29.98 in 10.0 mi WNW 13.8 mph - N/A   Clear
5:35 PM 21.2 °F 10.1 °F 12.2 °F 68% 29.98 in 10.0 mi WNW 10.4 mph - N/A   Mostly Cloudy
5:55 PM 23.0 °F 9.2 °F 12.2 °F 63% 29.99 in 10.0 mi WNW 17.3 mph 25.3 mph N/A   Overcast
6:15 PM 21.2 °F 8.9 °F 14.0 °F 74% 29.99 in 10.0 mi WNW 12.7 mph 21.9 mph N/A   Overcast
6:35 PM 21.2 °F 7.8 °F 14.0 °F 74% 30.00 in 8.0 mi WNW 15.0 mph 21.9 mph N/A   Mostly Cloudy
6:55 PM 21.2 °F 7.3 °F 14.0 °F 74% 30.00 in 10.0 mi West 16.1 mph - N/A   Partly Cloudy
7:15 PM 21.2 °F 7.8 °F 14.0 °F 74% 30.01 in 10.0 mi West 15.0 mph - N/A   Partly Cloudy
7:55 PM 21.2 °F 6.4 °F 14.0 °F 74% 30.01 in 10.0 mi West 18.4 mph 25.3 mph N/A Snow Light Snow
8:15 PM 21.2 °F 6.8 °F 12.2 °F 68% 30.01 in 10.0 mi West 17.3 mph - N/A   Mostly Cloudy
8:35 PM 19.4 °F 5.0 °F 12.2 °F 74% 30.01 in 10.0 mi West 16.1 mph - N/A   Clear
8:55 PM 19.4 °F 5.5 °F 10.4 °F 68% 30.01 in 10.0 mi West 15.0 mph - N/A   Clear
9:15 PM 17.6 °F 3.2 °F 10.4 °F 73% 30.02 in 10.0 mi West 15.0 mph - N/A   Clear
9:35 PM 17.6 °F 4.3 °F 10.4 °F 73% 30.02 in 10.0 mi West 12.7 mph - N/A   Partly Cloudy
9:55 PM 17.6 °F 5.0 °F 10.4 °F 73% 30.02 in 10.0 mi West 11.5 mph - N/A   Mostly Cloudy
10:15 PM 17.6 °F 5.0 °F 10.4 °F 73% 30.02 in 10.0 mi West 11.5 mph - N/A   Overcast
10:35 PM 17.6 °F 5.0 °F 10.4 °F 73% 30.02 in 10.0 mi West 11.5 mph - N/A   Overcast
10:55 PM 15.8 °F 2.7 °F 8.6 °F 73% 30.02 in 10.0 mi West 11.5 mph - N/A   Mostly Cloudy
11:15 PM 15.8 °F 3.4 °F 8.6 °F 73% 30.02 in 10.0 mi West 10.4 mph - N/A   Partly Cloudy
11:35 PM 15.8 °F 1.4 °F 8.6 °F 73% 30.03 in 10.0 mi West 13.8 mph - N/A   Scattered Clouds
11:55 PM 15.8 °F 1.4 °F 8.6 °F 73% 30.03 in 10.0 mi West 13.8 mph - N/A   Mostly Cloudy